Miscellaneous Local Product
Issued by NWS Hastings, NE

Home | Current Version | Previous Version | Graphics & Text | Print | Product List | Glossary On
Versions: 1 2 3 4 5 6 7 8 9 10 11 12 13 14 15 16 17 18 19 20 21 22 23 24 25 26 27 28 29 30 31 32 33 34 35 36 37 38 39 40 41 42 43 44 45 46 47 48 49 50
000
AXUS43 KGID 270702
MISGRI

GID CWA HOURLY WEATHER ROUNDUP
NATIONAL WEATHER SERVICE HASTINGS NE
200 AM CDT SUN JUL 27 2014

NOTE: "FAIR" INDICATES FEW OR NO CLOUDS BELOW 12,000 FEET WITH NO
SIGNIFICANT WEATHER AND/OR OBSTRUCTIONS TO VISIBILITY.

...SOUTH CENTRAL NEBRASKA...

CITY           SKY/WX    TMP DP  RH WIND       PRES   REMARKS
GRAND ISLAND   CLEAR     67  64  90 CALM      30.05R
HASTINGS       CLEAR     68  63  84 N5        30.05S
KEARNEY        CLEAR     66  61  82 NW5       30.07S
ORD            PTCLDY    63  61  93 N8        30.06R
YORK             N/A     68  68 100 CALM      30.03R FOG
AURORA         CLEAR     68  68 100 NW3       30.04R
LEXINGTON      CLEAR     64  61  91 NW6       30.10R
HOLDREGE       CLEAR     65  63  91 NW3       30.09R
HEBRON         CLEAR     74  69  86 N6        30.01R

...NEBRASKA PANHANDLE...

CITY           SKY/WX    TMP DP  RH WIND       PRES   REMARKS
CHADRON        CLEAR     55  48  77 CALM      30.21R
ALLIANCE       CLEAR     59  48  67 N7        30.20S
SCOTTSBLUFF    CLEAR     69  49  48 NE12      30.20R
SIDNEY         MOCLDY    65  58  78 SE5       30.22S

...WESTERN AND NORTH CENTRAL NEBRASKA...

CITY           SKY/WX    TMP DP  RH WIND       PRES   REMARKS
VALENTINE      CLEAR     57  50  77 W6        30.15R
AINSWORTH      CLEAR     56  51  84 SW3       30.14R
ONEILL         CLEAR     64  52  66 NW6       30.08R
BROKEN BOW     CLEAR     65  60  84 N7        30.08S
IMPERIAL       CLEAR     67  60  78 CALM      30.15R
NORTH PLATTE   CLEAR     63  59  87 CALM      30.12S
MCCOOK         CLEAR     66  60  81 NE8       30.09S

...EASTERN NEBRASKA...

CITY           SKY/WX    TMP DP  RH WIND       PRES   REMARKS
NORFOLK        CLEAR     68  65  90 W6        30.01R
SO SIOUX CITY  CLEAR     68  66  93 N6        29.97R
COLUMBUS       CLEAR     70  66  88 NW6       30.01S
ALBION         PTCLDY    68  63  83 N6        30.04S
OMAHA EPPLEY   PTCLDY    73  70  90 N7        29.95R
OFFUTT AFB     CLEAR     73  73 100 NW2       29.94R
MILLARD        CLEAR     77  72  83 CALM      29.95S
LINCOLN        CLEAR     76  71  85 NW6       29.99R
NEBRASKA CITY  CLEAR     73  73 100 N6        29.95R
BEATRICE       CLEAR     73  73  97 N6        29.98R
FALLS CITY     NOT AVBL

...NORTHERN KANSAS...

CITY           SKY/WX    TMP DP  RH WIND       PRES   REMARKS
GOODLAND       MOCLDY    69  64  84 NE9       30.15S
HILL CITY      PTCLDY    75  67  76 NE7       30.05S
NORTON         SUNNY     68  57  68 N7        30.06F
PHILLIPSBURG   CLEAR     77  64  65 N6        30.04R
SMITH CENTER   CLEAR     75  66  73 N20G25    30.01S
HAYS           PTCLDY    79  68  69 N15G22    30.02R
RUSSELL        PTCLDY    80  72  76 N18       29.98S
CONCORDIA      CLEAR     77  74  90 NE6       29.99R
SALINA         PTCLDY    85  74  69 NE14      29.96R HX  92
TOPEKA         CLEAR     80  76  87 N8        29.91R



USA.gov is the U.S. government's official web portal to all federal, state and local government web resources and services.